Zurück zum Katalog

CZ-6A DEB

AktivPO
NORAD 61087·DEBRIS·🇨🇳 China

Gestartet Aug 6, 2024 von Taiyuan Satellite Launch Center

Loading…

Nächste Überflüge (nächste 24 Stunden)

TLE

AktuellSource: Space-Track

Epoche: Sep 14, 2026, 10:02 UTC

1 61087U 24140ND  26257.41839214  .00001343  00000-0  30337-3 0  9997
2 61087  88.9078 251.4441 0092876 322.5961  36.8805 14.53068408108687

Verfolge CZ-6A DEB in Echtzeit mit AllMySat

Download on the App Store